Hourly Weather Acevedo

Today, 23 April, Friday

Time Temperature Precipitation Wind Pressure Humidity
00:00 +18°C° 0 mm 1 mps 643 mmHg 95%
01:00 +18°C° 0 mm 1 mps 643 mmHg 95%
02:00 +18°C° 0 mm 1 mps 643 mmHg 95%
03:00 +16°C° 0 mm 1 mps 642 mmHg 95%
04:00 +16°C° 0 mm 1 mps 642 mmHg 95%
05:00 +18°C° 0 mm 1 mps 643 mmHg 93%
06:00 +18°C° 0 mm 1 mps 643 mmHg 91%
07:00 +17°C° 0 mm 0 mps 644 mmHg 90%
08:00 +21°C° 0.4 mm 1 mps 644 mmHg 84%
09:00 +23°C° 0.4 mm 1 mps 645 mmHg 77%
10:00 +24°C° 0.4 mm 1 mps 646 mmHg 71%
11:00 +24°C° 0.7 mm 1 mps 645 mmHg 71%
12:00 +25°C° 0.7 mm 1 mps 644 mmHg 71%
13:00 +25°C° 0.7 mm 1 mps 644 mmHg 71%
14:00 +25°C° 0.7 mm 1 mps 643 mmHg 73%
15:00 +24°C° 0.7 mm 1 mps 643 mmHg 76%
16:00 +24°C° 0.7 mm 1 mps 642 mmHg 79%
17:00 +22°C° 0.6 mm 1 mps 642 mmHg 84%
18:00 +20°C° 0.6 mm 1 mps 642 mmHg 90%
19:00 +19°C° 0.6 mm 1 mps 642 mmHg 95%
20:00 +18°C° 0.1 mm 1 mps 643 mmHg 95%
21:00 +18°C° 0.1 mm 1 mps 643 mmHg 95%
22:00 +18°C° 0.1 mm 1 mps 644 mmHg 95%
23:00 +18°C° 0.1 mm 1 mps 643 mmHg 95%

Tomorrow, 24 April, Saturday

Time Temperature Precipitation Wind Pressure Humidity
00:00 +16°C° 0.1 mm 1 mps 643 mmHg 95%
01:00 +16°C° 0.1 mm 1 mps 643 mmHg 95%
02:00 +16°C° 0 mm 1 mps 643 mmHg 95%
03:00 +16°C° 0 mm 1 mps 642 mmHg 94%
04:00 +16°C° 0 mm 1 mps 642 mmHg 94%
05:00 +16°C° 0 mm 1 mps 643 mmHg 93%
06:00 +18°C° 0 mm 1 mps 643 mmHg 92%
07:00 +16°C° 0 mm 0 mps 644 mmHg 91%
08:00 +21°C° 0 mm 1 mps 645 mmHg 81%
09:00 +24°C° 0 mm 1 mps 645 mmHg 70%
10:00 +26°C° 0 mm 1 mps 646 mmHg 60%
11:00 +26°C° 0.4 mm 1 mps 645 mmHg 61%
12:00 +26°C° 0.4 mm 1 mps 645 mmHg 62%
13:00 +27°C° 0.4 mm 1 mps 644 mmHg 64%
14:00 +26°C° 1 mm 1 mps 643 mmHg 71%
15:00 +25°C° 1 mm 1 mps 643 mmHg 78%
16:00 +24°C° 1 mm 1 mps 642 mmHg 85%
17:00 +22°C° 1 mm 1 mps 642 mmHg 89%
18:00 +21°C° 1 mm 1 mps 642 mmHg 92%
19:00 +19°C° 1 mm 1 mps 642 mmHg 96%
20:00 +19°C° 0.1 mm 1 mps 643 mmHg 96%
21:00 +18°C° 0.1 mm 1 mps 643 mmHg 96%
22:00 +18°C° 0.1 mm 1 mps 643 mmHg 96%
23:00 +18°C° 0 mm 1 mps 643 mmHg 96%

Day after tomorrow, 25 April, Sunday

Time Temperature Precipitation Wind Pressure Humidity
00:00 +18°C° 0 mm 1 mps 643 mmHg 95%
01:00 +18°C° 0 mm 1 mps 642 mmHg 95%
02:00 +16°C° 0.1 mm 1 mps 642 mmHg 95%
03:00 +16°C° 0.1 mm 1 mps 642 mmHg 95%
04:00 +16°C° 0.1 mm 1 mps 642 mmHg 96%
05:00 +16°C° 0.2 mm 1 mps 642 mmHg 95%
06:00 +18°C° 0.2 mm 1 mps 643 mmHg 95%
07:00 +18°C° 0.2 mm 1 mps 643 mmHg 94%
08:00 +20°C° 0.2 mm 1 mps 644 mmHg 86%
09:00 +20°C° 0.2 mm 0 mps 645 mmHg 78%
10:00 +23°C° 0.2 mm 0 mps 646 mmHg 71%
11:00 +25°C° 0.7 mm 1 mps 645 mmHg 72%
12:00 +25°C° 0.7 mm 1 mps 644 mmHg 74%
13:00 +25°C° 0.7 mm 1 mps 643 mmHg 76%
14:00 +24°C° 1.2 mm 1 mps 643 mmHg 80%
15:00 +24°C° 1.2 mm 1 mps 642 mmHg 84%
16:00 +23°C° 1.2 mm 1 mps 642 mmHg 87%
17:00 +22°C° 1 mm 1 mps 642 mmHg 90%
18:00 +21°C° 1 mm 1 mps 642 mmHg 93%
19:00 +19°C° 1 mm 1 mps 642 mmHg 96%
20:00 +19°C° 0.2 mm 1 mps 643 mmHg 96%
21:00 +19°C° 0.2 mm 1 mps 643 mmHg 96%
22:00 +18°C° 0.2 mm 1 mps 643 mmHg 96%
23:00 +18°C° 0.2 mm 1 mps 643 mmHg 96%

26 April, Monday

Time Temperature Precipitation Wind Pressure Humidity
00:00 +18°C° 0.2 mm 1 mps 643 mmHg 96%
01:00 +18°C° 0.2 mm 1 mps 642 mmHg 96%
02:00 +18°C° 0 mm 1 mps 642 mmHg 96%
03:00 +18°C° 0 mm 1 mps 642 mmHg 96%
04:00 +18°C° 0 mm 1 mps 642 mmHg 96%
05:00 +18°C° 0 mm 1 mps 642 mmHg 95%
06:00 +16°C° 0 mm 0 mps 643 mmHg 94%
07:00 +17°C° 0 mm 0 mps 643 mmHg 93%
08:00 +19°C° 0.3 mm 0 mps 644 mmHg 87%
09:00 +21°C° 0.3 mm 0 mps 644 mmHg 81%
10:00 +23°C° 0.3 mm 0 mps 645 mmHg 74%
11:00 +24°C° 1.3 mm 1 mps 644 mmHg 78%
12:00 +24°C° 1.3 mm 1 mps 643 mmHg 81%
13:00 +24°C° 1.3 mm 1 mps 643 mmHg 84%
14:00 +24°C° 1.1 mm 1 mps 642 mmHg 85%
15:00 +24°C° 1.1 mm 1 mps 642 mmHg 86%
16:00 +23°C° 1.1 mm 1 mps 641 mmHg 87%
17:00 +22°C° 0.9 mm 1 mps 641 mmHg 90%
18:00 +21°C° 0.9 mm 1 mps 642 mmHg 94%
19:00 +19°C° 0.9 mm 1 mps 642 mmHg 97%
20:00 +19°C° 0.7 mm 1 mps 642 mmHg 97%
21:00 +19°C° 0.7 mm 1 mps 643 mmHg 97%
22:00 +19°C° 0.7 mm 1 mps 643 mmHg 97%
23:00 +19°C° 1.5 mm 1 mps 643 mmHg 97%

27 April, Tuesday

Time Temperature Precipitation Wind Pressure Humidity
00:00 +19°C° 1.5 mm 1 mps 642 mmHg 97%
01:00 +19°C° 1.5 mm 1 mps 642 mmHg 98%
02:00 +18°C° 1.1 mm 1 mps 642 mmHg 98%
03:00 +18°C° 1.1 mm 1 mps 642 mmHg 98%
04:00 +18°C° 1.1 mm 1 mps 642 mmHg 98%
05:00 +18°C° 0.3 mm 1 mps 642 mmHg 97%
06:00 +17°C° 0.3 mm 0 mps 642 mmHg 97%
07:00 +17°C° 0.3 mm 0 mps 643 mmHg 97%
08:00 +17°C° 0.5 mm 0 mps 643 mmHg 96%
09:00 +18°C° 0.5 mm 0 mps 643 mmHg 94%
10:00 +21°C° 0.5 mm 1 mps 644 mmHg 93%
11:00 +21°C° 2.3 mm 1 mps 643 mmHg 94%
12:00 +20°C° 2.3 mm 1 mps 643 mmHg 95%
13:00 +20°C° 2.3 mm 1 mps 643 mmHg 96%
14:00 +20°C° 3.2 mm 1 mps 642 mmHg 97%
15:00 +19°C° 3.2 mm 1 mps 642 mmHg 97%
16:00 +19°C° 3.2 mm 1 mps 642 mmHg 98%
17:00 +19°C° 0.5 mm 1 mps 642 mmHg 98%
18:00 +18°C° 0.5 mm 1 mps 642 mmHg 98%
19:00 +16°C° 0.5 mm 0 mps 643 mmHg 98%
20:00 +16°C° 0.3 mm 0 mps 643 mmHg 98%
21:00 +16°C° 0.3 mm 0 mps 643 mmHg 98%
22:00 +16°C° 0.3 mm 0 mps 644 mmHg 98%
23:00 +15°C° 0.4 mm 0 mps 643 mmHg 98%

28 April, Wednesday

Time Temperature Precipitation Wind Pressure Humidity
00:00 +15°C° 0.4 mm 0 mps 643 mmHg 98%
01:00 +15°C° 0.4 mm 0 mps 643 mmHg 98%
02:00 +15°C° 0.1 mm 0 mps 643 mmHg 98%
03:00 +15°C° 0.1 mm 0 mps 643 mmHg 98%
04:00 +15°C° 0.1 mm 0 mps 643 mmHg 98%
05:00 +15°C° 0.5 mm 0 mps 643 mmHg 98%
06:00 +16°C° 0.5 mm 0 mps 643 mmHg 98%
07:00 +16°C° 0.5 mm 0 mps 644 mmHg 98%
08:00 +16°C° 0.4 mm 0 mps 644 mmHg 97%
09:00 +17°C° 0.4 mm 0 mps 645 mmHg 96%
10:00 +17°C° 0.4 mm 0 mps 645 mmHg 95%
11:00 +18°C° 0.3 mm 0 mps 645 mmHg 91%
12:00 +19°C° 0.3 mm 0 mps 644 mmHg 87%
13:00 +20°C° 0.3 mm 0 mps 644 mmHg 83%
14:00 +19°C° 0.2 mm 0 mps 643 mmHg 86%
15:00 +19°C° 0.2 mm 0 mps 643 mmHg 89%
16:00 +18°C° 0.2 mm 0 mps 642 mmHg 92%
17:00 +17°C° 0 mm 0 mps 642 mmHg 93%
18:00 +17°C° 0 mm 0 mps 642 mmHg 94%
19:00 +18°C° 0 mm 1 mps 643 mmHg 95%
20:00 +18°C° 0 mm 1 mps 643 mmHg 95%
21:00 +16°C° 0 mm 0 mps 643 mmHg 94%
22:00 +16°C° 0 mm 0 mps 643 mmHg 94%
23:00 +16°C° 0.1 mm 0 mps 643 mmHg 94%
Show more